Terug naar catalogus

OPS 4682 DEB

ActiefPO
NORAD 39609·DEBRIS·🇺🇸 United States

Gelanceerd Apr 3, 1965 vanaf Vandenberg Space Force Base

Loading…

Volgende Passages (komende 24 uur)

TLE

VersSource: Space-Track

Epoch: Sep 12, 2026, 19:49 UTC

1 39609U 65027FS  26255.82599793  .00000703  00000-0  23675-2 0  9994
2 39609  90.2598  16.5438 0028940 179.0079 333.8895 12.98204785607676

Volg OPS 4682 DEB in realtime met AllMySat

Download on the App Store